Regional Weather Roundup
Issued by NWS Nashville, TN

Home | Current Version | Previous Version | Text Only | Print | Product List | Glossary On
Versions: 1 2 3 4 5 6 7 8 9 10 11 12 13 14 15 16 17 18 19 20 21 22 23 24 25 26 27 28 29 30 31 32 33 34 35 36 37 38 39 40 41 42 43 44 45 46 47 48 49 50
398
ASUS44 KOHX 081310
RWROHX
MIDDLE TENNESSEE HOURLY WEATHER ROUNDUP
NATIONAL WEATHER SERVICE NASHVILLE TN
700 AM CST MON FEB 08 2016

NOTE: "FAIR" INDICATES FEW OR NO CLOUDS BELOW 12,000 FEET WITH
NO SIGNIFICANT WEATHER AND/OR OBSTRUCTIONS TO VISIBILITY.

* THESE REPORTS ARE NOT UNDER NWS QUALITY CONTROL AND MAY NOT
  REPORT WEATHER SUCH AS PRECIPITATION AND FOG.


TNZ005>011-023>034-057-059-062>066-078-080-081400
...NORTHERN MIDDLE TENNESSEE...

CITY           SKY/WX    TMP DP  RH WIND       PRES   REMARKS
CLARKSVILLE    CLOUDY    39  25  57 W13       29.78R WCI  31
CROSSVILLE     PTCLDY    37  27  67 CALM      29.75R
DICKSON        CLEAR     36  23  60 W14       29.79R WCI  27
LIVINGSTON     PTCLDY    36  31  82 SW5       29.74S WCI  32
NASHVILLE      PTCLDY    41  26  55 W7        29.79R
PORTLAND       PTCLDY   N/A N/A N/A VRB6      29.74S
ROCKWOOD       MOCLDY    36  28  73 SW5       29.74F WCI  32
SMYRNA         PTCLDY    40  29  65 W12       29.80S WCI  33
SPARTA         CLEAR     30  28  93 SW5       29.74F WCI  25
$$
TNZ056-058-060-061-075>077-079-093>097-081400
...SOUTHERN MIDDLE TENNESSEE...

CITY           SKY/WX    TMP DP  RH WIND       PRES   REMARKS
COLUMBIA       CLEAR     39  28  65 W9        29.80R WCI  33
FAYETTEVILLE   CLEAR     39  32  75 SW5       29.81F
LEWISBURG      CLEAR     39  28  65 W6        29.81R WCI  35
MCMINNVILLE    CLEAR     37  28  70 SW6       29.78R WCI  33
SHELBYVILLE    CLEAR     39  30  70 SW7       29.81S WCI  34
TULLAHOMA      CLEAR     36  28  75 SW8       29.80S WCI  29
WINCHESTER     PTCLDY    39  30  70 W7        29.81S WCI  34
$$


...KEY TO REMARKS...
VSB - VISIBILITY IN MILES
WCI - WIND CHILL INDEX
HX  - HEAT INDEX





USA.gov is the U.S. government's official web portal to all federal, state and local government web resources and services.